Location: Brodeslavy
(49.9527°N, 13.5567°E)
Time: 21:34:39
(UTC+00:00)

ATLAS 2AS CENTAUR R/B - Pass Details

Date: 17 June 2025
Orbit: 1040 x 1170 km, 63.7° (Epoch: 16 July)

Event Time Altitude Azimuth Distance (km) Brightness Sun altitude
Exits shadow 22:59:48 18° 211° (SSW) 2,455 4.1 -16.6°
Maximum altitude 23:05:22 77° 129° (SE) 1,132 2.7 -16.6°
Drops below altitude 10° 23:12:17 10° 44° (NE) 2,920 5.7 -16.6°
Sets 23:14:54 0° 43° (NE) 3,862 6.4 -16.6°
